Date String (YYYY-MM-DD hh:mm:ss) UTC,Instrument flags,Ambient pressure (hPa),Sample flow (lpm),Bypass flow (lpm),Sample temperature (°C),Ambient temperature (°C),ASC tube jacket temperature (°C),LED temperature (°C),Box temperature (°C),Sample RH (%),Span deviation,Mass concentration (μg/m³),Mass concentration (μg/m³),Mass concentration (μg/m³)
DateTimeUTC,F1_M11,P_M11,Q1_M11,Q2_M11,T1_M11,T2_M11,T3_M11,T4_M11,T5_M11,U1_M11,ZSPAN_M11,X0_M11,X2_M11,X1_M11
2022-02-03 22:00:00,,0827.5,4.98,0.00,23.0,22.2,00.0,32.1,24.8,05.1,0000.9,0014.45,0010.82,0010.42
2022-02-03 22:01:00,,0827.6,5.02,0.00,23.0,22.2,00.0,32.1,24.8,05.1,0001.0,0014.46,0010.81,0010.38
2022-02-03 22:02:00,,0827.6,4.98,0.00,23.0,22.2,00.0,32.1,24.8,05.2,0001.4,0014.52,0010.79,0010.35
2022-02-03 22:03:00,,0827.6,5.01,0.00,23.0,22.2,00.0,32.1,24.8,05.1,0001.4,0014.68,0010.76,0010.33
2022-02-03 22:04:00,,0827.6,5.00,0.00,23.0,22.2,00.0,32.1,24.8,05.1,0001.3,0014.68,0010.74,0010.32
2022-02-03 22:05:00,,0827.7,5.00,0.00,23.0,22.2,00.0,32.0,24.8,05.0,0001.1,0014.83,0010.73,0010.31
2022-02-03 22:06:00,,0827.7,4.99,0.00,23.0,22.2,00.0,32.0,24.8,05.1,0001.2,0014.87,0010.71,0010.30
2022-02-03 22:07:00,,0827.7,5.02,0.00,23.0,22.2,00.0,32.0,24.8,05.1,0001.4,0014.59,0010.72,0010.29
2022-02-03 22:08:00,,0827.7,4.99,0.00,23.0,22.2,00.0,32.0,24.8,05.1,0001.8,0014.47,0010.72,0010.30
2022-02-03 22:09:00,,0827.7,4.99,0.00,23.0,22.2,00.0,32.0,24.8,05.1,0001.4,0014.43,0010.70,0010.29
2022-02-03 22:10:00,,0827.7,5.00,0.00,23.0,22.2,00.0,32.0,24.8,05.0,0001.3,0014.39,0010.69,0010.29
2022-02-03 22:11:00,,0827.7,5.00,0.00,23.0,22.2,00.0,32.0,24.8,05.0,0001.5,0014.44,0010.70,0010.28
2022-02-03 22:12:00,,0827.7,5.02,0.00,23.0,22.2,00.0,32.0,24.7,05.0,0001.2,0014.46,0010.68,0010.25
2022-02-03 22:13:00,,0827.7,4.99,0.00,23.0,22.2,00.0,32.0,24.7,05.0,0001.5,0014.45,0010.67,0010.22
2022-02-03 22:14:00,,0827.7,4.99,0.00,23.0,22.2,00.0,32.0,24.7,05.1,0001.9,0014.17,0010.66,0010.20
2022-02-03 22:15:00,,0827.7,5.00,0.00,22.9,22.1,00.0,31.9,24.7,05.0,0001.6,0014.08,0010.63,0010.18
2022-02-03 22:16:00,,0827.7,5.00,0.00,22.9,22.2,00.0,31.9,24.7,05.0,0002.0,0013.91,0010.61,0010.16
2022-02-03 22:17:00,,0827.7,5.00,0.00,22.9,22.2,00.0,31.9,24.7,05.0,0002.4,0013.74,0010.57,0010.13
2022-02-03 22:18:00,,0827.7,4.99,0.00,22.9,22.2,00.0,31.9,24.7,05.0,0002.2,0013.72,0010.54,0010.11
2022-02-03 22:19:00,,0827.7,5.01,0.00,22.9,22.2,00.0,31.9,24.7,05.0,0001.5,0013.74,0010.50,0010.07
2022-02-03 22:20:00,,0827.7,4.99,0.00,22.9,22.2,00.0,31.9,24.7,05.0,0001.7,0013.76,0010.48,0010.04
2022-02-03 22:21:00,,0827.7,5.02,0.00,22.9,22.2,00.0,31.9,24.7,05.0,0001.9,0013.75,0010.44,0010.00
2022-02-03 22:22:00,,0827.8,4.99,0.00,22.9,22.2,00.0,31.9,24.7,05.1,0002.2,0013.93,0010.44,0009.98
2022-02-03 22:23:00,,0827.8,5.01,0.00,22.9,22.2,00.0,31.9,24.7,05.0,0002.0,0014.25,0010.42,0009.95
2022-02-03 22:24:00,,0827.8,4.99,0.00,22.9,22.2,00.0,31.9,24.7,05.1,0001.4,0014.61,0010.40,0009.93
2022-02-03 22:25:00,,0827.8,4.99,0.00,22.9,22.2,00.0,31.9,24.7,05.1,0001.1,0015.17,0010.35,0009.90
2022-02-03 22:26:00,,0827.9,5.01,0.00,22.9,22.2,00.0,31.9,24.7,05.1,0001.1,0015.57,0010.33,0009.87
2022-02-03 22:27:00,,0828.0,5.01,0.00,22.9,22.2,00.0,31.9,24.7,05.1,0001.5,0015.80,0010.31,0009.85
2022-02-03 22:28:00,,0827.9,4.99,0.00,22.9,22.2,00.0,31.9,24.7,05.1,0001.4,0015.96,0010.33,0009.84
2022-02-03 22:29:00,,0828.0,4.99,0.00,22.9,22.2,00.0,31.9,24.7,05.1,0001.4,0016.58,0010.33,0009.83
2022-02-03 22:30:00,,0828.0,5.01,0.00,22.9,22.2,00.0,31.9,24.7,05.1,0002.2,0016.52,0010.29,0009.79
2022-02-03 22:31:00,,0828.2,4.99,0.00,22.9,22.2,00.0,31.9,24.7,05.1,0002.6,0017.15,0010.28,0009.78
2022-02-03 22:32:00,,0828.2,5.02,0.00,22.9,22.2,00.0,31.9,24.7,05.1,0002.6,0017.30,0010.32,0009.81
2022-02-03 22:33:00,,0828.1,4.99,0.00,22.9,22.2,00.0,31.9,24.8,05.2,0002.4,0017.10,0010.31,0009.82
2022-02-03 22:34:00,,0828.1,5.01,0.00,22.9,22.2,00.0,31.9,24.8,05.2,0002.4,0016.88,0010.37,0009.87
2022-02-03 22:35:00,,0828.1,5.01,0.00,22.9,22.2,00.0,31.9,24.8,05.2,0002.6,0016.54,0010.39,0009.91
2022-02-03 22:36:00,,0828.1,4.99,0.00,23.0,22.2,00.0,31.9,24.8,05.2,0002.2,0015.93,0010.45,0009.97
2022-02-03 22:37:00,,0828.1,5.00,0.00,23.0,22.3,00.0,31.9,24.8,05.2,0002.3,0015.77,0010.48,0010.01
2022-02-03 22:38:00,,0828.1,5.01,0.00,23.0,22.3,00.0,31.9,24.8,05.2,0001.6,0015.96,0010.51,0010.06
2022-02-03 22:39:00,,0828.1,5.00,0.00,23.0,22.3,00.0,31.9,24.8,05.2,0001.3,0016.12,0010.53,0010.07
2022-02-03 22:40:00,,0828.1,4.99,0.00,23.0,22.3,00.0,31.9,24.8,05.2,0001.3,0015.80,0010.58,0010.09
2022-02-03 22:41:00,,0828.1,5.01,0.00,23.0,22.4,00.0,31.9,24.9,05.1,0001.1,0015.87,0010.63,0010.16
2022-02-03 22:42:00,,0828.3,4.99,0.00,23.0,22.4,00.0,31.9,24.9,05.1,0001.3,0015.24,0010.67,0010.20
2022-02-03 22:43:00,,0828.1,5.02,0.00,23.1,22.4,00.0,31.9,24.9,05.1,0001.3,0015.11,0010.67,0010.21
2022-02-03 22:44:00,,0828.1,5.00,0.00,23.1,22.4,00.0,32.0,24.9,05.1,0001.3,0015.06,0010.64,0010.19
2022-02-03 22:45:00,,0828.2,5.00,0.00,23.1,22.4,00.0,32.0,24.9,05.1,0001.1,0015.08,0010.61,0010.19
2022-02-03 22:46:00,,0828.1,5.00,0.00,23.1,22.4,00.0,32.0,24.9,05.1,0000.9,0015.30,0010.63,0010.22
2022-02-03 22:47:00,,0828.3,5.00,0.00,23.1,22.4,00.0,32.0,24.9,05.1,0001.1,0015.30,0010.63,0010.23
2022-02-03 22:48:00,,0828.2,4.99,0.00,23.1,22.4,00.0,32.0,24.9,05.1,0001.2,0015.74,0010.64,0010.23
2022-02-03 22:49:00,,0828.3,5.01,0.00,23.1,22.4,00.0,32.0,24.9,05.2,0001.8,0015.46,0010.66,0010.25
2022-02-03 22:50:00,,0828.3,4.99,0.00,23.1,22.4,00.0,32.0,24.9,05.1,0002.4,0015.52,0010.66,0010.28
2022-02-03 22:51:00,,0828.4,5.01,0.00,23.1,22.4,00.0,32.0,25.0,05.1,0002.3,0015.28,0010.62,0010.30
2022-02-03 22:52:00,,0828.6,4.99,0.00,23.1,22.4,00.0,32.0,25.0,05.1,0002.3,0015.23,0010.64,0010.30
2022-02-03 22:53:00,,0828.4,5.01,0.00,23.1,22.4,00.0,32.0,25.0,05.0,0001.8,0015.28,0010.67,0010.32
2022-02-03 22:54:00,,0828.4,4.99,0.00,23.2,22.5,00.0,32.0,25.0,05.0,0002.0,0015.28,0010.65,0010.29
2022-02-03 22:55:00,,0828.4,5.00,0.00,23.2,22.5,00.0,32.0,25.0,04.9,0002.0,0015.31,0010.64,0010.28
2022-02-03 22:56:00,,0828.3,5.00,0.00,23.2,22.4,00.0,32.0,25.0,04.8,0002.2,0015.26,0010.62,0010.25
2022-02-03 22:57:00,,0828.4,4.99,0.00,23.2,22.5,00.0,32.1,25.0,04.9,0002.8,0015.02,0010.58,0010.19
2022-02-03 22:58:00,,0828.4,4.99,0.00,23.2,22.4,00.0,32.1,25.0,05.0,0002.8,0014.99,0010.55,0010.14
2022-02-03 22:59:00,,0828.4,5.02,0.00,23.2,22.4,00.0,32.1,25.0,05.0,0003.1,0014.70,0010.56,0010.12
